| time (UTC) | temp F | wind direction | speed MPH | gust MPH | rain 1hr in | rain 24hr in | rain mn in | humidity % | barometer mb |
| 20260508204503 | 47 | 311 | 7.0 | 16.0 | 0.00 | 0.00 | 0.00 | 75 | 1019.1 |
| 20260508203025 | 48 | 312 | 10.0 | 16.0 | 0.00 | 0.00 | 0.00 | 75 | 1018.8 |
| 20260508201503 | 48 | 317 | 11.0 | 15.0 | 0.00 | 0.00 | 0.00 | 74 | 1018.6 |
| 20260508200004 | 48 | 319 | 9.0 | 13.0 | 0.00 | 0.00 | 0.00 | 74 | 1018.3 |
| 20260508194524 | 49 | 320 | 10.0 | 16.0 | 0.00 | 0.00 | 0.00 | 74 | 1018.1 |
| 20260508193025 | 49 | 315 | 12.0 | 18.0 | 0.00 | 0.00 | 0.00 | 72 | 1017.8 |
| 20260508191503 | 49 | 314 | 12.0 | 18.0 | 0.00 | 0.00 | 0.00 | 70 | 1017.6 |
| 20260508190004 | 50 | 312 | 12.0 | 18.0 | 0.00 | 0.00 | 0.00 | 70 | 1017.3 |
| 20260508184504 | 50 | 311 | 12.0 | 18.0 | 0.00 | 0.00 | 0.00 | 72 | 1017.0 |
| 20260508183003 | 50 | 308 | 12.0 | 16.0 | 0.00 | 0.00 | 0.00 | 70 | 1016.9 |
| 20260508181503 | 51 | 308 | 13.0 | 18.0 | 0.00 | 0.00 | 0.00 | 68 | 1016.6 |
| 20260508180003 | 52 | 310 | 11.0 | 19.0 | 0.00 | 0.00 | 0.00 | 68 | 1016.5 |
| 20260508174503 | 51 | 314 | 10.0 | 16.0 | 0.00 | 0.00 | 0.00 | 71 | 1016.4 |
| 20260508173003 | 51 | 312 | 12.0 | 18.0 | 0.00 | 0.00 | 0.00 | 70 | 1016.3 |
| 20260508171503 | 51 | 323 | 9.0 | 16.0 | 0.00 | 0.00 | 0.00 | 71 | 1016.0 |
| 20260508170004 | 51 | 311 | 12.0 | 19.0 | 0.00 | 0.00 | 0.00 | 70 | 1015.8 |
| 20260508164503 | 51 | 308 | 12.0 | 21.0 | 0.00 | 0.00 | 0.00 | 72 | 1015.5 |
| 20260508163003 | 51 | 313 | 13.0 | 19.0 | 0.00 | 0.00 | 0.00 | 71 | 1015.2 |
| 20260508161504 | 51 | 315 | 15.0 | 21.0 | 0.00 | 0.00 | 0.00 | 73 | 1015.2 |
| 20260508160003 | 52 | 314 | 15.0 | 24.0 | 0.00 | 0.00 | 0.00 | 73 | 1015.1 |
| 20260508154503 | 52 | 312 | 14.0 | 23.0 | 0.00 | 0.00 | 0.00 | 73 | 1015.0 |
| 20260508153003 | 53 | 313 | 14.0 | 21.0 | 0.00 | 0.00 | 0.00 | 70 | 1014.9 |
| 20260508151503 | 53 | 309 | 14.0 | 23.0 | 0.00 | 0.00 | 0.00 | 71 | 1014.7 |
| 20260508150004 | 54 | 315 | 14.0 | 22.0 | 0.00 | 0.00 | 0.00 | 68 | 1014.5 |
| 20260508144524 | 55 | 304 | 14.0 | 22.0 | 0.00 | 0.00 | 0.00 | 65 | 1014.3 |
| 20260508143003 | 55 | 301 | 13.0 | 21.0 | 0.00 | 0.00 | 0.00 | 67 | 1014.1 |
| 20260508141503 | 55 | 306 | 15.0 | 24.0 | 0.00 | 0.00 | 0.00 | 66 | 1013.9 |
| 20260508140003 | 55 | 310 | 8.0 | 13.0 | 0.00 | 0.00 | 0.00 | 67 | 1013.7 |
| 20260508134503 | 55 | 302 | 10.0 | 19.0 | 0.00 | 0.00 | 0.00 | 67 | 1013.6 |
| 20260508133003 | 55 | 293 | 13.0 | 18.0 | 0.00 | 0.00 | 0.00 | 65 | 1013.5 |
| 20260508131503 | 56 | 275 | 6.0 | 14.0 | 0.00 | 0.00 | 0.00 | 62 | 1013.3 |
| 20260508130004 | 56 | 276 | 5.0 | 15.0 | 0.00 | 0.00 | 0.00 | 64 | 1013.2 |
| 20260508124503 | 56 | 259 | 7.0 | 15.0 | 0.00 | 0.00 | 0.00 | 62 | 1013.1 |
| 20260508123003 | 56 | 237 | 8.0 | 15.0 | 0.00 | 0.00 | 0.00 | 65 | 1013.0 |
| 20260508121503 | 55 | 236 | 14.0 | 23.0 | 0.00 | 0.00 | 0.00 | 64 | 1013.0 |
| 20260508120003 | 56 | 235 | 11.0 | 22.0 | 0.00 | 0.00 | 0.00 | 66 | 1012.9 |
| 20260508114503 | 56 | 223 | 11.0 | 25.0 | 0.00 | 0.00 | 0.00 | 66 | 1012.6 |
| 20260508113004 | 55 | 230 | 14.0 | 24.0 | 0.00 | 0.00 | 0.00 | 65 | 1012.5 |
| 20260508111503 | 56 | 235 | 15.0 | 24.0 | 0.00 | 0.00 | 0.00 | 66 | 1012.3 |
| 20260508110003 | 54 | 236 | 14.0 | 25.0 | 0.00 | 0.00 | 0.00 | 68 | 1012.3 |
| 20260508104503 | 54 | 234 | 11.0 | 18.0 | 0.00 | 0.00 | 0.00 | 71 | 1012.3 |
| 20260508103003 | 53 | 244 | 14.0 | 25.0 | 0.00 | 0.00 | 0.00 | 70 | 1012.1 |
| 20260508101503 | 53 | 246 | 15.0 | 22.0 | 0.00 | 0.00 | 0.00 | 69 | 1012.0 |
| 20260508100003 | 53 | 237 | 13.0 | 23.0 | 0.00 | 0.00 | 0.00 | 69 | 1012.0 |
| 20260508094524 | 52 | 230 | 14.0 | 22.0 | 0.00 | 0.00 | 0.00 | 70 | 1011.7 |
| 20260508093003 | 52 | 227 | 12.0 | 22.0 | 0.00 | 0.00 | 0.00 | 71 | 1011.6 |
| 20260508091524 | 52 | 219 | 12.0 | 21.0 | 0.00 | 0.00 | 0.00 | 69 | 1011.6 |
| 20260508090024 | 51 | 219 | 10.0 | 18.0 | 0.00 | 0.00 | 0.00 | 73 | 1011.4 |
| 20260508084503 | 51 | 219 | 8.0 | 16.0 | 0.00 | 0.00 | 0.00 | 73 | 1011.4 |
| 20260508083003 | 50 | 219 | 10.0 | 19.0 | 0.00 | 0.00 | 0.00 | 73 | 1011.3 |
| 20260508081524 | 50 | 217 | 6.0 | 13.0 | 0.00 | 0.00 | 0.00 | 73 | 1011.2 |
| 20260508080024 | 50 | 219 | 6.0 | 14.0 | 0.00 | 0.00 | 0.00 | 75 | 1011.1 |
| 20260508074524 | 49 | 205 | 5.0 | 16.0 | 0.00 | 0.00 | 0.00 | 78 | 1010.9 |
| 20260508073003 | 49 | 206 | 7.0 | 14.0 | 0.00 | 0.00 | 0.00 | 77 | 1010.6 |
| 20260508071524 | 48 | 225 | 4.0 | 11.0 | 0.00 | 0.00 | 0.00 | 79 | 1010.4 |
| 20260508070003 | 48 | 218 | 7.0 | 16.0 | 0.00 | 0.00 | 0.00 | 80 | 1010.1 |
| 20260508064503 | 48 | 218 | 7.0 | 13.0 | 0.00 | 0.00 | 0.00 | 81 | 1009.9 |
| 20260508063003 | 48 | 218 | 6.0 | 12.0 | 0.00 | 0.00 | 0.00 | 82 | 1009.9 |
| 20260508061503 | 48 | 209 | 3.0 | 8.0 | 0.00 | 0.00 | 0.00 | 84 | 1009.8 |
| 20260508060024 | 47 | 210 | 5.0 | 9.0 | 0.00 | 0.00 | 0.00 | 85 | 1009.6 |
| 20260508054503 | 47 | 217 | 5.0 | 9.0 | 0.00 | 0.00 | 0.00 | 86 | 1009.4 |
| 20260508053003 | 47 | 220 | 5.0 | 9.0 | 0.00 | 0.00 | 0.00 | 87 | 1009.2 |
| 20260508051503 | 47 | 208 | 6.0 | 12.0 | 0.00 | 0.00 | 0.00 | 87 | 1009.1 |
| 20260508050003 | 47 | 194 | 7.0 | 11.0 | 0.00 | 0.00 | 0.00 | 87 | 1009.0 |
| 20260508044503 | 47 | 189 | 8.0 | 11.0 | 0.00 | 0.00 | 0.00 | 87 | 1008.9 |
| 20260508043003 | 46 | 187 | 6.0 | 11.0 | 0.00 | 0.00 | 0.00 | 87 | 1008.8 |
| 20260508041524 | 46 | 183 | 7.0 | 10.0 | 0.00 | 0.00 | 0.00 | 86 | 1008.8 |
| 20260508040003 | 47 | 183 | 9.0 | 12.0 | 0.00 | 0.00 | 0.00 | 85 | 1008.6 |
| 20260508034503 | 47 | 187 | 8.0 | 12.0 | 0.00 | 0.00 | 0.00 | 85 | 1008.6 |
| 20260508033003 | 47 | 175 | 11.0 | 14.0 | 0.00 | 0.00 | 0.00 | 85 | 1008.4 |
| 20260508031503 | 47 | 175 | 12.0 | 15.0 | 0.00 | 0.00 | 0.00 | 84 | 1008.4 |
| 20260508030003 | 48 | 179 | 12.0 | 18.0 | 0.00 | 0.00 | 0.00 | 84 | 1008.4 |
| 20260508024524 | 48 | 181 | 9.0 | 15.0 | 0.00 | 0.00 | 0.00 | 83 | 1008.5 |
| 20260508023024 | 48 | 184 | 11.0 | 14.0 | 0.00 | 0.00 | 0.00 | 82 | 1008.4 |
| 20260508021503 | 48 | 179 | 9.0 | 18.0 | 0.00 | 0.00 | 0.00 | 83 | 1008.5 |
| 20260508020005 | 47 | 168 | 10.0 | 15.0 | 0.00 | 0.00 | 0.00 | 84 | 1008.3 |
| 20260508014505 | 47 | 165 | 12.0 | 16.0 | 0.00 | 0.00 | 0.00 | 84 | 1008.2 |
| 20260508013005 | 48 | 174 | 15.0 | 18.0 | 0.00 | 0.00 | 0.00 | 83 | 1008.2 |
| 20260508011505 | 48 | 182 | 18.0 | 24.0 | 0.00 | 0.00 | 0.00 | 83 | 1008.1 |
| 20260508010005 | 46 | 177 | 13.0 | 20.0 | 0.00 | 0.00 | 0.00 | 85 | 1008.2 |
| 20260508004505 | 46 | 180 | 13.0 | 19.0 | 0.00 | 0.00 | 0.00 | 84 | 1008.3 |
| 20260508003005 | 47 | 187 | 16.0 | 23.0 | 0.00 | 0.00 | 0.00 | 83 | 1008.1 |
| 20260508001505 | 46 | 186 | 16.0 | 24.0 | 0.00 | 0.00 | 0.00 | 83 | 1008.0 |
| 20260508000005 | 46 | 184 | 16.0 | 21.0 | 0.00 | 0.00 | 0.00 | 82 | 1008.0 |
| 20260507234505 | 47 | 184 | 16.0 | 25.0 | 0.00 | 0.00 | 0.00 | 82 | 1008.1 |
| 20260507233005 | 47 | 182 | 15.0 | 21.0 | 0.00 | 0.00 | 0.00 | 82 | 1008.1 |
| 20260507231504 | 47 | 184 | 16.0 | 22.0 | 0.00 | 0.00 | 0.00 | 82 | 1008.4 |
| 20260507230005 | 46 | 179 | 14.0 | 20.0 | 0.00 | 0.00 | 0.00 | 85 | 1008.4 |
| 20260507224505 | 46 | 181 | 15.0 | 20.0 | 0.00 | 0.00 | 0.00 | 86 | 1008.3 |
| 20260507223005 | 47 | 183 | 13.0 | 19.0 | 0.00 | 0.00 | 0.00 | 85 | 1008.3 |
| 20260507221504 | 48 | 184 | 15.0 | 22.0 | 0.00 | 0.00 | 0.00 | 86 | 1008.3 |
| 20260507220004 | 47 | 183 | 17.0 | 22.0 | 0.00 | 0.00 | 0.00 | 86 | 1008.2 |
| 20260507214505 | 47 | 181 | 18.0 | 24.0 | 0.00 | 0.00 | 0.00 | 86 | 1008.2 |
| 20260507213005 | 47 | 182 | 17.0 | 23.0 | 0.00 | 0.00 | 0.00 | 86 | 1008.3 |
| 20260507211505 | 47 | 181 | 18.0 | 25.0 | 0.00 | 0.00 | 0.00 | 86 | 1008.5 |
| 20260507210005 | 47 | 176 | 19.0 | 23.0 | 0.00 | 0.00 | 0.00 | 86 | 1008.5 |